DW6016 Weather Reports


time (UTC)temp
F
wind
direction
speed
knots
gust
knots
rain 1hr
in
rain 24hr
in
rain mn
in
humidity
%
barometer
mb
20260902103841 60 308 0.0 0.0 0.00 0.00 0.00 83 1011.2
20260902103337 60 308 0.0 0.0 0.00 0.00 0.00 83 1011.1
20260902102832 60 308 0.0 0.0 0.00 0.00 0.00 83 1011.3
20260902102330 60 307 0.0 0.0 0.00 0.00 0.00 83 1011.2
20260902101825 60 307 0.0 0.0 0.00 0.00 0.00 83 1011.2
20260902101325 60 332 0.0 0.0 0.00 0.00 0.00 83 1011.2
20260902100824 60 328 0.0 0.0 0.00 0.00 0.00 83 1011.3
20260902100318 60 345 0.0 0.0 0.00 0.00 0.00 83 1011.3
20260902095813 60 313 0.0 0.0 0.00 0.00 0.00 83 1011.5
20260902095308 60 329 0.0 0.0 0.00 0.00 0.00 83 1011.5
20260902094802 60 241 1.7 2.6 0.00 0.00 0.00 83 1011.2
20260902094259 60 301 0.0 0.0 0.00 0.00 0.00 83 1011.5
20260902093758 60 332 0.0 0.0 0.00 0.00 0.00 83 1011.3
20260902093253 60 316 0.0 0.0 0.00 0.00 0.00 83 1011.5
20260902092752 60 313 0.9 0.9 0.00 0.00 0.00 84 1011.8
20260902092248 60 301 0.0 0.0 0.00 0.00 0.00 84 1011.7
20260902091747 60 300 0.9 0.9 0.00 0.00 0.00 84 1011.7
20260902091244 60 318 0.0 0.0 0.00 0.00 0.00 85 1011.9
20260902090740 60 322 0.9 0.9 0.00 0.00 0.00 86 1012.0
20260902090239 59 307 0.0 0.9 0.00 0.00 0.00 86 1011.9
20260902085733 59 329 0.0 0.0 0.00 0.00 0.00 86 1012.1
20260902085229 60 298 0.0 0.0 0.00 0.00 0.00 85 1012.1
20260902084724 60 298 0.0 0.0 0.00 0.00 0.00 85 1011.9
20260902084221 60 296 0.0 0.0 0.00 0.00 0.00 85 1012.1
20260902083720 60 298 0.0 0.0 0.00 0.00 0.00 85 1012.2
20260902083220 60 303 0.0 0.9 0.00 0.00 0.00 85 1012.1
20260902082716 60 299 0.0 0.9 0.00 0.00 0.00 85 1012.1
20260902082212 60 324 0.0 0.0 0.00 0.00 0.00 85 1012.1
20260902081708 60 298 0.0 0.9 0.00 0.00 0.00 86 1012.0
20260902081203 60 319 0.0 0.0 0.00 0.00 0.00 85 1012.0
20260902080658 60 318 0.0 0.0 0.00 0.00 0.00 85 1012.0
20260902080155 61 318 0.0 0.0 0.00 0.00 0.00 84 1011.9
20260902075655 61 313 0.0 0.9 0.00 0.00 0.00 83 1011.8
20260902075150 61 313 0.0 0.0 0.00 0.00 0.00 82 1011.9
20260902074645 62 313 0.0 0.0 0.00 0.00 0.00 82 1012.2
20260902074141 62 323 0.0 0.0 0.00 0.00 0.00 81 1012.0
20260902073636 62 323 0.0 0.0 0.00 0.00 0.00 81 1011.9
20260902073132 62 310 0.0 0.0 0.00 0.00 0.00 81 1012.1
20260902072628 62 303 0.0 0.0 0.00 0.00 0.00 80 1012.2
20260902072124 62 315 0.0 0.0 0.00 0.00 0.00 80 1012.4
20260902071619 62 311 0.0 0.0 0.00 0.00 0.00 80 1012.4
20260902071115 62 305 0.0 0.0 0.00 0.00 0.00 80 1012.3
20260902070610 62 267 0.9 0.9 0.00 0.00 0.00 79 1012.4
20260902070105 62 312 0.0 0.0 0.00 0.00 0.00 80 1012.4
20260902065558 62 244 0.9 0.9 0.00 0.00 0.00 79 1012.5
20260902065054 62 298 0.9 0.9 0.00 0.00 0.00 79 1012.6
20260902064550 62 308 0.0 0.9 0.00 0.00 0.00 79 1012.7
20260902064044 62 305 0.0 0.0 0.00 0.00 0.00 80 1012.3
20260902063539 62 302 0.0 0.9 0.00 0.00 0.00 80 1012.6
20260902063034 62 293 0.0 0.9 0.00 0.00 0.00 80 1012.6
20260902062533 62 294 0.0 0.9 0.00 0.00 0.00 80 1012.2
20260902062029 62 297 0.0 0.0 0.00 0.00 0.00 80 1012.6
20260902061528 62 318 0.0 0.0 0.00 0.00 0.00 79 1012.8
20260902061024 62 318 0.0 0.0 0.00 0.00 0.00 78 1012.5
20260902060520 63 322 0.0 0.0 0.00 0.00 0.00 77 1012.7
20260902060017 63 307 0.0 0.0 0.00 0.00 0.00 77 1012.5
20260902055512 63 306 0.0 0.0 0.00 0.00 0.00 77 1012.5
20260902055007 63 300 0.0 0.0 0.00 0.00 0.00 77 1012.5
20260902054508 63 326 0.0 0.9 0.00 0.00 0.00 77 1012.7
20260902054003 63 313 0.0 0.0 0.00 0.00 0.00 77 1012.7
20260902053458 63 307 0.0 0.0 0.00 0.00 0.00 77 1012.7
20260902052957 63 315 0.0 0.0 0.00 0.00 0.00 77 1012.7
20260902052452 63 311 0.0 0.0 0.00 0.00 0.00 77 1012.9
20260902051948 63 284 0.9 0.9 0.00 0.00 0.00 77 1012.9
20260902051442 63 325 0.9 0.9 0.00 0.00 0.00 77 1012.7
20260902050941 63 347 0.0 0.0 0.00 0.00 0.00 77 1012.9
20260902050441 63 309 0.0 0.0 0.00 0.00 0.00 78 1012.8
20260902045936 63 314 0.0 0.0 0.00 0.00 0.00 77 1012.6
20260902045432 63 313 0.0 0.0 0.00 0.00 0.00 77 1012.7
20260902044928 63 324 0.0 0.0 0.00 0.00 0.00 77 1012.9
20260902044423 63 316 0.0 0.0 0.00 0.00 0.00 77 1012.8
20260902043919 63 324 0.0 0.0 0.00 0.00 0.00 77 1012.7
20260902043414 64 312 0.0 0.0 0.00 0.00 0.00 77 1012.9
20260902042909 63 306 0.0 0.0 0.00 0.00 0.00 77 1012.8
20260902042408 64 326 0.0 0.0 0.00 0.00 0.00 77 1012.5
20260902041904 64 308 0.0 0.0 0.00 0.00 0.00 76 1012.7
20260902041403 64 314 0.0 0.0 0.00 0.00 0.00 76 1012.7
20260902040903 64 310 0.0 0.0 0.00 0.00 0.00 76 1012.7
20260902040358 64 350 0.0 0.0 0.00 0.00 0.00 76 1012.8
20260902035857 64 313 0.0 0.0 0.00 0.00 0.00 76 1012.8
20260902035352 64 313 0.0 0.0 0.00 0.00 0.00 76 1012.6
20260902034851 64 300 0.0 0.0 0.00 0.00 0.00 76 1012.5
20260902034346 64 322 0.0 0.0 0.00 0.00 0.00 76 1012.9
20260902033844 64 315 0.0 0.0 0.00 0.00 0.00 75 1012.5
20260902033339 64 314 0.0 0.0 0.00 0.00 0.00 75 1012.4
20260902032838 64 321 0.0 0.0 0.00 0.00 0.00 74 1012.5
20260902032339 64 309 0.0 0.0 0.00 0.00 0.00 74 1012.4
20260902031833 64 311 0.0 0.0 0.00 0.00 0.00 74 1012.8
20260902031330 65 315 0.0 0.9 0.00 0.00 0.00 74 1012.2
20260902030825 65 312 0.0 0.0 0.00 0.00 0.00 74 1012.6
20260902030319 65 198 0.9 1.7 0.00 0.00 0.00 73 1012.6
20260902025818 65 10 0.0 0.0 0.00 0.00 0.00 74 1012.4
20260902025314 65 359 0.0 0.0 0.00 0.00 0.00 73 1012.6
20260902024809 65 359 0.0 0.0 0.00 0.00 0.00 73 1012.4
20260902024304 65 16 0.0 0.9 0.00 0.00 0.00 72 1012.4
20260902023759 65 346 0.0 0.0 0.00 0.00 0.00 73 1012.4
20260902023255 65 1 0.0 0.0 0.00 0.00 0.00 73 1012.1
20260902022754 66 1 0.0 0.0 0.00 0.00 0.00 73 1012.3
20260902022250 66 337 0.0 0.0 0.00 0.00 0.00 72 1012.2
20260902021745 66 337 0.0 0.0 0.00 0.00 0.00 71 1012.2
20260902021245 66 339 0.0 0.0 0.00 0.00 0.00 71 1012.0
20260902020741 67 340 0.0 0.0 0.00 0.00 0.00 71 1012.0
20260902020237 67 345 0.0 0.0 0.00 0.00 0.00 70 1012.1
20260902015732 67 332 0.0 0.9 0.00 0.00 0.00 70 1012.3
20260902015229 67 351 0.0 0.0 0.00 0.00 0.00 70 1012.2
20260902014724 67 326 0.0 0.9 0.00 0.00 0.00 70 1012.0
20260902014220 67 327 0.0 0.9 0.00 0.00 0.00 70 1012.1
20260902013718 67 320 0.0 0.0 0.00 0.00 0.00 70 1012.2
20260902013214 67 319 0.0 0.0 0.00 0.00 0.00 70 1012.0
20260902012709 68 330 0.9 0.9 0.00 0.00 0.00 69 1012.0
20260902012205 68 328 0.9 0.9 0.00 0.00 0.00 68 1012.0
20260902011700 68 314 0.9 0.9 0.00 0.00 0.00 68 1012.1
20260902011155 68 308 0.9 1.7 0.00 0.00 0.00 67 1011.8
20260902010654 68 322 0.0 0.9 0.00 0.00 0.00 67 1012.3
20260902010150 68 319 0.0 0.0 0.00 0.00 0.00 67 1011.9
20260902005648 68 305 0.0 0.0 0.00 0.00 0.00 67 1011.8
20260902005144 68 314 0.0 0.0 0.00 0.00 0.00 67 1012.0
20260902004643 68 317 0.0 0.0 0.00 0.00 0.00 68 1011.8
20260902004138 68 306 0.9 1.7 0.00 0.00 0.00 67 1012.0
20260902003634 68 312 0.0 0.9 0.00 0.00 0.00 67 1011.8
20260902003129 69 308 1.7 2.6 0.00 0.00 0.00 66 1011.7
20260902002625 69 318 0.0 0.0 0.00 0.00 0.00 66 1011.7
20260902002119 69 314 0.9 0.9 0.00 0.00 0.00 64 1011.7
20260902001614 70 297 0.0 0.0 0.00 0.00 0.00 64 1011.7
20260902001109 70 329 1.7 1.7 0.00 0.00 0.00 64 1011.6
20260902000604 70 306 0.0 0.0 0.00 0.00 0.00 64 1011.9
20260902000100 70 298 0.9 0.9 0.00 0.00 0.00 64 1011.6
20260901235559 71 303 2.6 5.2 0.00 0.00 0.00 63 1011.8
20260901235055 71 316 0.0 0.0 0.00 0.00 0.00 63 1011.5
20260901234553 70 301 0.0 0.9 0.00 0.00 0.00 64 1011.9
20260901234049 70 311 1.7 1.7 0.00 0.00 0.00 63 1011.7
20260901233549 71 313 0.0 0.9 0.00 0.00 0.00 63 1011.7
20260901233045 71 299 0.9 0.9 0.00 0.00 0.00 63 1011.9
20260901232540 70 271 0.9 0.9 0.00 0.00 0.00 65 1012.0
20260901232035 71 316 1.7 1.7 0.00 0.00 0.00 65 1011.8
20260901231531 70 334 0.0 0.0 0.00 0.00 0.00 66 1011.8
20260901231028 70 281 0.9 1.7 0.00 0.00 0.00 67 1012.0
20260901230528 69 350 0.0 0.9 0.00 0.00 0.00 67 1011.9
20260901230023 70 299 4.3 5.2 0.00 0.00 0.00 65 1012.1
20260901225518 70 310 4.3 6.1 0.00 0.00 0.00 64 1012.0
20260901225012 69 297 0.9 1.7 0.00 0.00 0.00 65 1012.0
20260901224508 69 300 1.7 1.7 0.00 0.00 0.00 65 1012.0
20260901224004 69 314 0.9 0.9 0.00 0.00 0.00 64 1011.9
20260901223459 71 296 2.6 2.6 0.00 0.00 0.00 62 1012.2
20260901222955 70 318 0.0 0.0 0.00 0.00 0.00 65 1012.2
20260901222451 70 306 1.7 1.7 0.00 0.00 0.00 65 1012.1
20260901221947 69 302 0.9 0.9 0.00 0.00 0.00 66 1012.1
20260901221443 71 315 0.0 0.9 0.00 0.00 0.00 65 1012.1
20260901220943 71 301 0.9 1.7 0.00 0.00 0.00 65 1012.1
20260901220442 69 308 0.0 0.0 0.00 0.00 0.00 67 1012.1
20260901215940 69 313 0.0 0.0 0.00 0.00 0.00 68 1012.0
20260901215439 69 312 0.9 1.7 0.00 0.00 0.00 67 1012.1
20260901214939 68 306 0.0 0.0 0.00 0.00 0.00 68 1012.1
20260901214438 68 304 0.0 0.0 0.00 0.00 0.00 68 1012.3
20260901213938 68 314 0.0 0.0 0.00 0.00 0.00 69 1012.0
20260901213432 68 305 0.0 0.0 0.00 0.00 0.00 67 1012.1
20260901212931 69 311 0.9 0.9 0.00 0.00 0.00 66 1012.1
20260901212427 69 318 1.7 1.7 0.00 0.00 0.00 66 1012.1
20260901211924 69 306 0.0 0.9 0.00 0.00 0.00 67 1012.1
20260901211419 69 311 0.0 0.0 0.00 0.00 0.00 65 1012.1
20260901210915 69 309 0.0 0.0 0.00 0.00 0.00 66 1012.0
20260901210410 69 312 0.0 0.9 0.00 0.00 0.00 67 1012.2
20260901205907 69 310 0.0 0.0 0.00 0.00 0.00 67 1012.3
20260901205401 69 305 0.0 0.0 0.00 0.00 0.00 68 1012.2
20260901204856 69 300 0.9 0.9 0.00 0.00 0.00 69 1012.2
20260901204353 69 319 0.0 0.0 0.00 0.00 0.00 66 1012.2
20260901203852 70 306 0.0 0.0 0.00 0.00 0.00 66 1012.5
20260901203346 69 308 0.0 0.0 0.00 0.00 0.00 68 1012.5
20260901202842 69 322 0.0 0.0 0.00 0.00 0.00 66 1012.4
20260901202336 69 313 0.0 0.9 0.00 0.00 0.00 69 1012.5
20260901201833 68 308 0.0 0.0 0.00 0.00 0.00 71 1012.4
20260901201332 68 301 0.9 0.9 0.00 0.00 0.00 72 1012.4
20260901200826 67 326 0.0 0.9 0.00 0.00 0.00 71 1012.4
20260901200321 67 313 0.0 0.0 0.00 0.00 0.00 73 1012.4
20260901195820 67 314 0.0 0.0 0.00 0.00 0.00 74 1012.3
20260901195313 66 334 0.0 0.0 0.00 0.00 0.00 75 1012.3
20260901194809 66 322 0.9 0.9 0.00 0.00 0.00 76 1012.5
20260901194303 66 325 0.0 0.0 0.00 0.00 0.00 76 1012.5
20260901193800 67 352 0.0 0.9 0.00 0.00 0.00 73 1012.5
20260901193258 67 325 0.0 0.0 0.00 0.00 0.00 74 1012.7
20260901192753 67 313 0.9 0.9 0.00 0.00 0.00 73 1012.6
20260901192249 67 292 0.0 0.0 0.00 0.00 0.00 72 1012.7
20260901191744 68 261 0.9 0.9 0.00 0.00 0.00 72 1012.7
20260901191240 68 330 0.0 0.0 0.00 0.00 0.00 72 1012.9
20260901190736 68 313 0.0 0.0 0.00 0.00 0.00 73 1012.9
20260901190230 67 311 0.0 0.0 0.00 0.00 0.00 74 1013.1
20260901185728 67 307 0.9 0.9 0.00 0.00 0.00 75 1012.9
20260901185227 66 319 0.0 0.0 0.00 0.00 0.00 77 1013.0
20260901184723 65 334 0.9 0.9 0.00 0.00 0.00 76 1012.8
20260901184218 67 212 0.9 1.7 0.00 0.00 0.00 74 1013.1
20260901183714 67 317 0.0 0.9 0.00 0.00 0.00 74 1012.9
20260901183213 67 316 0.0 0.0 0.00 0.00 0.00 74 1013.0
20260901182710 66 319 0.0 0.9 0.00 0.00 0.00 77 1013.1
20260901182208 66 311 0.0 0.0 0.00 0.00 0.00 77 1013.3
20260901181704 65 311 0.0 0.9 0.00 0.00 0.00 79 1013.3
20260901181204 66 311 0.0 0.0 0.00 0.00 0.00 79 1013.0
20260901180703 65 329 0.0 0.0 0.00 0.00 0.00 80 1013.3
20260901180157 65 312 0.0 0.0 0.00 0.00 0.00 81 1013.1
20260901175657 65 304 2.6 2.6 0.00 0.00 0.00 82 1013.4
20260901175157 64 268 0.9 0.9 0.00 0.00 0.00 84 1013.3
20260901174652 63 310 2.6 2.6 0.00 0.00 0.00 84 1013.3
20260901174148 63 26 0.9 0.9 0.00 0.00 0.00 86 1013.3
20260901173643 62 309 0.0 0.0 0.00 0.00 0.00 89 1013.3
20260901173138 62 314 0.9 0.9 0.00 0.00 0.00 89 1013.2
20260901172634 62 314 0.9 0.9 0.00 0.00 0.00 89 1013.3
20260901172132 62 312 1.7 1.7 0.00 0.00 0.00 89 1013.1
20260901171632 62 322 0.0 0.0 0.00 0.00 0.00 90 1013.1
20260901171131 61 313 0.0 0.0 0.00 0.00 0.00 91 1013.0
20260901170631 61 311 0.0 0.0 0.00 0.00 0.00 92 1013.2
20260901170126 61 302 0.0 0.0 0.00 0.00 0.00 92 1013.1
20260901165625 61 318 0.0 0.0 0.00 0.00 0.00 92 1013.1
20260901165120 61 311 0.0 0.0 0.00 0.00 0.00 93 1013.3
20260901164616 60 313 0.0 0.0 0.00 0.00 0.00 94 1013.0
20260901164111 60 278 0.0 0.0 0.00 0.00 0.00 94 1013.2
20260901163606 60 317 0.0 0.0 0.00 0.00 0.00 94 1013.1
20260901163059 60 319 0.0 0.0 0.00 0.00 0.00 93 1013.3
20260901162555 60 326 0.0 0.0 0.00 0.00 0.00 92 1013.2
20260901162054 60 313 0.0 0.9 0.00 0.00 0.00 91 1013.2
20260901161553 60 318 0.0 0.0 0.00 0.00 0.00 91 1013.1
20260901161053 60 320 0.0 0.0 0.00 0.00 0.00 91 1012.9
20260901160549 60 329 0.0 0.0 0.00 0.00 0.00 91 1013.0
20260901160044 60 318 0.0 0.9 0.00 0.00 0.00 91 1013.2
20260901155543 60 323 0.0 0.0 0.00 0.00 0.00 92 1013.0
20260901155039 60 309 0.9 0.9 0.00 0.00 0.00 91 1013.0
20260901154539 60 317 0.0 0.0 0.00 0.00 0.00 91 1013.1
20260901154034 60 308 0.0 0.0 0.00 0.00 0.00 91 1013.3
20260901153529 60 302 0.0 0.0 0.00 0.00 0.00 91 1013.2
20260901153029 60 317 0.9 0.9 0.00 0.00 0.00 90 1013.1
20260901152529 60 324 0.0 0.0 0.00 0.00 0.00 90 1013.2
20260901152028 60 311 0.0 0.9 0.00 0.00 0.00 89 1013.0
20260901151524 60 307 0.0 0.0 0.00 0.00 0.00 88 1012.8
20260901151023 60 312 0.0 0.0 0.00 0.00 0.00 87 1012.9
20260901150521 60 314 0.0 0.0 0.00 0.00 0.00 87 1012.8
20260901150020 60 311 0.0 0.9 0.00 0.00 0.00 87 1012.8
20260901145513 60 320 0.0 0.0 0.00 0.00 0.00 87 1012.7
20260901145013 60 318 0.0 0.0 0.00 0.00 0.00 86 1012.7
20260901144508 60 308 0.0 0.0 0.00 0.00 0.00 86 1012.7
20260901144003 60 305 0.0 0.9 0.00 0.00 0.00 86 1012.7
20260901143459 60 314 0.0 0.0 0.00 0.00 0.00 86 1012.6
20260901142955 60 314 0.0 0.9 0.00 0.00 0.00 86 1012.8
20260901142450 60 311 0.0 0.0 0.00 0.00 0.00 86 1012.6
20260901141945 60 314 0.0 0.0 0.00 0.00 0.00 86 1012.7
20260901141444 60 288 0.0 0.0 0.00 0.00 0.00 87 1012.5
20260901140940 60 286 0.0 0.0 0.00 0.00 0.00 87 1012.6
20260901140437 60 286 0.0 0.0 0.00 0.00 0.00 87 1012.5
20260901135932 59 252 0.9 1.7 0.00 0.00 0.00 87 1012.7
20260901135427 59 310 0.0 0.0 0.00 0.00 0.00 87 1012.4
20260901134923 59 292 0.0 0.0 0.00 0.00 0.00 88 1012.3
20260901134419 59 308 0.0 0.0 0.00 0.00 0.00 88 1012.2
20260901133918 59 308 0.0 0.0 0.00 0.00 0.00 88 1012.3
20260901133418 59 308 0.0 0.0 0.00 0.00 0.00 88 1012.3
20260901132916 59 302 0.0 0.0 0.00 0.00 0.00 88 1012.5
20260901132411 59 303 0.0 0.0 0.00 0.00 0.00 89 1012.3
20260901131910 59 303 0.0 0.0 0.00 0.00 0.00 89 1012.3
20260901131410 59 303 0.0 0.0 0.00 0.00 0.00 89 1012.4
20260901130906 59 304 0.0 0.0 0.00 0.00 0.00 90 1012.4
20260901130400 58 303 0.0 0.0 0.00 0.00 0.00 90 1012.3
20260901125858 58 302 0.0 0.0 0.00 0.00 0.00 90 1012.3
20260901125357 58 285 0.0 0.0 0.00 0.00 0.00 90 1012.4
20260901124852 58 285 0.0 0.0 0.00 0.00 0.00 90 1012.3
20260901124347 58 285 0.0 0.0 0.00 0.00 0.00 90 1012.2
20260901123847 58 285 0.0 0.0 0.00 0.00 0.00 90 1012.3
20260901123342 58 285 0.0 0.0 0.00 0.00 0.00 90 1012.0
20260901122840 58 280 0.0 0.9 0.00 0.00 0.00 90 1012.2
20260901122335 58 294 0.0 0.0 0.00 0.00 0.00 90 1012.3
20260901121834 58 294 0.0 0.0 0.00 0.00 0.00 90 1012.1
20260901121330 58 293 0.0 0.0 0.00 0.00 0.00 90 1012.3
20260901120825 58 293 0.0 0.0 0.00 0.00 0.00 90 1012.3
20260901120319 58 330 0.0 0.0 0.00 0.00 0.00 90 1012.2
20260901115815 58 330 0.0 0.0 0.00 0.00 0.00 90 1012.3
20260901115310 58 331 0.0 0.0 0.00 0.00 0.00 90 1012.2
20260901114808 58 331 0.0 0.0 0.00 0.00 0.00 90 1012.2
20260901114302 58 307 0.0 0.0 0.00 0.00 0.00 90 1012.3
20260901113801 58 289 0.0 0.0 0.00 0.00 0.00 91 1012.1
20260901113255 58 296 0.0 0.0 0.00 0.00 0.00 91 1012.3
20260901112750 58 297 0.0 0.0 0.00 0.00 0.00 91 1012.2
20260901112249 58 296 0.0 0.0 0.00 0.00 0.00 91 1012.2
20260901111744 58 296 0.0 0.9 0.00 0.00 0.00 91 1012.0
20260901111243 57 300 0.0 0.0 0.00 0.00 0.00 91 1012.0
20260901110737 57 306 0.0 0.9 0.00 0.00 0.00 92 1012.2
20260901110233 57 316 0.0 0.0 0.00 0.00 0.00 92 1012.0
20260901105730 57 316 0.0 0.0 0.00 0.00 0.00 91 1012.1
20260901105229 57 316 0.0 0.0 0.00 0.00 0.00 90 1012.1
20260901104725 58 316 0.0 0.0 0.00 0.00 0.00 90 1012.1